Regional Weather Roundup
Issued by NWS

Home | Current Version | Previous Version | Graphics & Text | Print | Product List | Glossary On
Versions: 1 2 3 4 5 6 7 8 9 10 11 12 13 14 15 16 17 18 19 20 21 22 23 24 25 26 27 28 29 30 31 32 33 34 35 36 37 38 39 40 41 42 43 44 45 46 47 48 49 50
000
ASUS43 KLMK 280702
RWRKY
KENTUCKY REGIONAL WEATHER ROUNDUP
NATIONAL WEATHER SERVICE LOUISVILLE KY
300 AM EDT TUE MAR 28 2017

NOTE "FAIR" INDICATES FEW OR NO CLOUDS BELOW 12,000 FEET
WITH NO SIGNIFICANT WEATHER AND/OR OBSTRUCTIONS TO VISIBILITY.

KYZ001>023-026-027-061>063-070>075-280800-
WESTERN AND SOUTH CENTRAL KENTUCKY

CITY           SKY/WX    TMP DP  RH WIND       PRES   REMARKS
PADUCAH        CLOUDY    55  51  86 W3        29.90S
HENDERSON      CLOUDY    55  50  82 W8        29.86R
OWENSBORO        N/A    N/A N/A N/A MISG        N/A
HOPKINSVILLE   FOG       52  52 100 CALM      29.89R VSB 1/2
BOWLING GREEN  PTCLDY    57  55  93 CALM      29.88S
GLASGOW        NOT AVBL
$$

KYZ024-025-028>034-038-045-046-053-280800-
NORTH CENTRAL KENTUCKY

CITY           SKY/WX    TMP DP  RH WIND       PRES   REMARKS
LOUISVILLE/SDF CLOUDY    58  54  86 SW5       29.85R
LOUISVILLE/LOU CLOUDY    57  54  89 CALM      29.85S
FORT KNOX      FOG       52  52 100 CALM      29.83S VSB 1/2
$$

KYZ035>037-039>044-047>052-055>060-089>105-280800-
NORTHEAST KENTUCKY

CITY           SKY/WX    TMP DP  RH WIND       PRES   REMARKS
LEXINGTON      CLOUDY    55  53  93 SW6       29.86S
COVINGTON      CLOUDY    56  54  93 S6        29.83S
FRANKFORT      CLOUDY    56  52  86 SW3       29.84S
$$

KYZ054-064>069-076>088-106>120-280800-
SOUTHEAST KENTUCKY

CITY           SKY/WX    TMP DP  RH WIND       PRES   REMARKS
JACKSON        CLOUDY    55  54  96 CALM      29.85F
LONDON         PTCLDY    54  52  93 W3        29.87R
SOMERSET       NOT AVBL
MIDDLESBORO    RAIN      57  55  92 S3        29.89F
MONTICELLO     CLOUDY    51  50  96 W10       29.89R
$$





USA.gov is the U.S. government's official web portal to all federal, state and local government web resources and services.